THORAD AGENA D DEB, 4650

Orbit data source: Space-Track

THORAD AGENA D DEB, 4650 is space debris in SSO originally from a launch on Wed, 08 Apr 1970 UTC launched from the Air Force Western Test Range (AFWTR). Debris objects in space refer to the collection of defunct objects orbiting the Earth. Examples of debris include non-operational satellites, rocket bodies, and fragments generated from explosions, collisions, or faulty payload assembly.

Loading next visibility...
Identifier
4650, 1970-025AJ
Orbit
SSO
Last TLE update
17 hours ago
Origin
Manufacturer
Unknown
Mission
Spacecraft
Bus & Motor
Unknown
Mass
Unknown
Launch date (UTC)
1970-04-08 (55 years ago)
Launch vehicle
Unknown
Launch site
Air Force Western Test Range (AFWTR)
Object type
Payload
Rocket body
Debris
Shape & HBR
Unknown
Radar Cross Section
Small (<0.1 m²)

Expand to show TLE details & history

TLE from 17 hours ago
0 THORAD AGENA D DEB
1 04650U 70025AJ  25186.21881830  .00000561  00000-0  32679-3 0  9994
2 04650  99.8304 276.3907 0113601 323.3761  35.9678 14.10159995808773
Epoch: 2025-07-05T05:15Z
TLE epoch observation values (Epoch: 2025-07-05T05:15:05.901Z)
Latitude
-0.00006°
Longitude
-85.84389°
Altitude
795.463 km
Speed
7.49 km/s
True Right ascension
18h 25m 33s
True Declination
0° 00' 00"
Sunlit
Object was in full shadow at epoch
Visualization orbit readout
Latitude
45.44036°
Longitude
-95.13987°
Altitude
857.28 km
Speed
7.433 km/s
Apparent Right ascension
20h 04m 12s
Apparent Declination
7° 22' 14"
Sunlit
Object is in daylight
Visualization observer readout
Local Sidereal Time
10:25:56
Azimuth
42.985° NE
Elevation
-32.51°
Doppler factor
1
Orbital elements
Apogee altitude
938.233 km
Perigee altitude
773.871 km
Semi-major axis
7,234.189 km
Eccentricity
0.01136
Inclination
99.8304°
RAAN
276.3907°
Arg. of periapsis
323.3761°
True anomaly
Unknown
Mean anomaly
35.9678°
Eccentric anomaly
Unknown
Mean motion
3.52743 °/min
Orbital period
102.06 mins
BSTAR
0.00032679
Loading maneuver chart data...
Loading SW <> Apogee altitude chart data...

THORAD AGENA D DEB Visibility forecast

Observer location: undefined°, undefined°

Span
Click to sort rows by Start time (UTC) header in descending order
Start Az.
Max El. time (UTC)
Max El. Az.
Max El.
End time (UTC)
End Az.
9 mins2025-07-06 05:12:44.656Z133.697° SE2025-07-06 05:17:44.656Z63.358° ENE32.145°2025-07-06 05:21:44.656Z4.819° NNE
7 mins2025-07-06 06:55:44.656Z222.393° SW2025-07-06 06:58:44.656Z269.844° W24.048°2025-07-06 07:02:44.656Z318.944° NNW
6 mins2025-07-06 17:38:44.656Z64.135° ENE2025-07-06 17:40:44.656Z86.941° E16.809°2025-07-06 17:44:44.656Z131.095° SE
10 mins2025-07-06 19:17:44.656Z7.332° NNE2025-07-06 19:22:44.656Z263.234° W42.271°2025-07-06 19:27:44.656Z207.991° SW
|